FW8918 Weather Reports


time (UTC)temp
C
wind
direction
speed
KPH
gust
KPH
rain 1hr
cm
rain 24hr
cm
rain mn
cm
humidity
%
barometer
mb
20260502163048 12 261 0.0 4.8 0.00 0.00 0.00 88 1014.3
20260502161528 12 0 0.0 6.4 0.00 0.00 0.00 89 1014.6
20260502151534 13 235 6.4 12.9 0.00 0.00 0.00 80 1015.5
20260502123030 15 205 8.0 17.7 0.00 0.00 0.00 72 1016.5
20260502121530 16 155 9.7 20.9 0.00 0.00 0.00 71 1016.5
20260502114530 16 233 11.3 17.7 0.00 0.00 0.00 68 1016.5
20260502113029 16 149 9.7 16.1 0.00 0.00 0.00 68 1016.5
20260502111529 16 140 8.0 14.5 0.00 0.00 0.00 67 1016.8
20260502110032 16 186 6.4 11.3 0.00 0.00 0.00 67 1016.9
20260502104528 16 160 6.4 12.9 0.00 0.00 0.00 69 1017.0
20260502103027 15 202 6.4 14.5 0.00 0.00 0.00 70 1016.9
20260502101530 15 179 8.0 14.5 0.00 0.00 0.00 70 1017.1
20260502091530 16 165 6.4 20.9 0.00 0.00 0.00 70 1017.3
20260502071530 15 210 8.0 16.1 0.00 0.00 0.00 74 1017.5
20260502070039 14 162 6.4 17.7 0.00 0.00 0.00 76 1017.5
20260502064538 14 158 4.8 17.7 0.00 0.00 0.00 76 1017.5
20260502063030 13 160 9.7 14.5 0.00 0.00 0.00 77 1017.6
20260502061529 13 161 6.4 12.9 0.00 0.00 0.00 79 1017.7
20260502060031 13 159 6.4 16.1 0.00 0.00 0.00 79 1017.7
20260502054528 13 150 6.4 16.1 0.00 0.00 0.00 79 1017.9
20260502053029 12 170 6.4 12.9 0.00 0.00 0.00 80 1017.8
20260502051530 12 83 6.4 12.9 0.00 0.00 0.00 80 1017.8
20260502050034 12 176 4.8 12.9 0.00 0.00 0.00 80 1017.9
20260502044529 12 168 4.8 11.3 0.00 0.00 0.00 80 1017.8
20260502043030 12 135 1.6 9.7 0.00 0.00 0.00 79 1017.8
20260502041534 12 157 4.8 9.7 0.00 0.00 0.00 79 1018.0
20260502040027 12 155 6.4 11.3 0.00 0.00 0.00 79 1018.1
20260502034536 12 156 6.4 9.7 0.00 0.00 0.00 78 1018.2
20260502033031 12 150 6.4 17.7 0.00 0.00 0.00 77 1018.3
20260502031530 12 143 6.4 14.5 0.00 0.00 0.00 77 1018.5
20260502030028 13 243 6.4 14.5 0.00 0.00 0.00 76 1018.7
20260502024533 13 180 4.8 12.9 0.00 0.00 0.00 75 1018.7
20260502023030 13 169 6.4 16.1 0.00 0.00 0.00 74 1019.0
20260502021528 13 122 6.4 12.9 0.00 0.00 0.00 74 1019.2
20260502020028 13 141 4.8 11.3 0.00 0.00 0.00 73 1019.4
20260502014547 13 174 3.2 14.5 0.00 0.00 0.00 72 1019.5
20260502013028 13 186 6.4 16.1 0.00 0.00 0.00 72 1019.7
20260502011530 13 146 4.8 12.9 0.00 0.00 0.00 73 1020.0
20260502010029 13 146 4.8 12.9 0.00 0.00 0.00 72 1020.1
20260502004528 13 146 4.8 12.9 0.00 0.00 0.00 70 1020.2
20260502003031 13 129 3.2 14.5 0.00 0.00 0.00 70 1020.4
20260502001528 13 151 4.8 17.7 0.00 0.00 0.00 70 1020.6
20260502000044 12 161 4.8 9.7 0.00 0.00 0.00 75 1020.7
20260501234528 11 117 0.0 3.2 0.00 0.00 0.00 77 1020.9
20260501233030 11 126 0.0 3.2 0.00 0.00 0.00 76 1021.1
20260501231531 12 122 0.0 4.8 0.00 0.00 0.00 75 1021.3
20260501230030 12 140 1.6 4.8 0.00 0.00 0.00 75 1021.5
20260501224529 12 152 1.6 8.0 0.00 0.00 0.00 75 1021.5
20260501223027 11 0 0.0 3.2 0.00 0.00 0.00 75 1021.8
20260501221531 11 126 0.0 1.6 0.00 0.00 0.00 75 1021.9
20260501220029 11 0 0.0 1.6 0.00 0.00 0.00 74 1022.2
20260501214535 11 0 0.0 0.0 0.00 0.00 0.00 74 1022.3
20260501213028 11 0 0.0 1.6 0.00 0.00 0.00 74 1022.4
20260501211528 11 0 0.0 0.0 0.00 0.00 0.00 72 1022.5
20260501210028 11 0 0.0 0.0 0.00 0.00 0.00 71 1022.8
20260501204529 12 0 0.0 0.0 0.00 0.00 0.00 70 1022.9
20260501203032 12 0 0.0 0.0 0.00 0.00 0.00 70 1023.0
20260501201530 12 0 0.0 0.0 0.00 0.00 0.00 69 1022.9
20260501200028 12 0 0.0 0.0 0.00 0.00 0.00 68 1022.9
20260501194535 13 0 0.0 0.0 0.00 0.00 0.00 66 1023.0
20260501193028 13 0 0.0 0.0 0.00 0.00 0.00 63 1023.1
20260501191531 15 0 0.0 0.0 0.00 0.00 0.00 60 1023.2
20260501190028 16 0 0.0 3.2 0.00 0.00 0.00 57 1023.2
20260501184528 17 0 0.0 3.2 0.00 0.00 0.00 54 1023.2
20260501183042 18 118 0.0 4.8 0.00 0.00 0.00 51 1023.3
20260501181536 19 0 0.0 4.8 0.00 0.00 0.00 52 1023.5
20260501180035 20 144 1.6 4.8 0.00 0.00 0.00 47 1023.6
20260501174540 20 162 1.6 4.8 0.00 0.00 0.00 47 1023.7
20260501173030 19 158 3.2 8.0 0.00 0.00 0.00 47 1023.8
20260501171529 18 162 3.2 6.4 0.00 0.00 0.00 48 1024.0
20260501170028 18 236 3.2 9.7 0.00 0.00 0.00 48 1024.4
20260501164530 18 169 4.8 11.3 0.00 0.00 0.00 48 1024.5